| time (UTC) | temp F | wind direction | speed MPH | gust MPH | rain 1hr in | rain 24hr in | rain mn in | humidity % | barometer mb |
| 20260505102056 | 51 | 0 | 0.0 | 0.0 | 0.00 | 0.40 | 0.01 | 10 | 1015.5 |
| 20260505101100 | 51 | 0 | 0.0 | 0.0 | 0.00 | 0.40 | 0.01 | 10 | 1015.5 |
| 20260505100059 | 51 | 0 | 0.0 | 0.0 | 0.00 | 0.40 | 0.01 | 10 | 1015.5 |
| 20260505095101 | 51 | 0 | 0.0 | 0.0 | 0.00 | 0.40 | 0.01 | 10 | 1015.5 |
| 20260505094101 | 51 | 0 | 0.0 | 0.0 | 0.00 | 0.40 | 0.01 | 10 | 1015.5 |
| 20260505091058 | 51 | 0 | 0.0 | 0.0 | 0.00 | 0.40 | 0.01 | 10 | 1015.6 |
| 20260505084059 | 51 | 0 | 0.0 | 0.0 | 0.00 | 0.40 | 0.01 | 10 | 1015.6 |
| 20260505083058 | 51 | 0 | 0.0 | 0.0 | 0.00 | 0.40 | 0.01 | 10 | 1015.7 |
| 20260505082059 | 51 | 0 | 0.0 | 0.0 | 0.00 | 0.40 | 0.01 | 10 | 1015.7 |
| 20260505081100 | 51 | 0 | 0.0 | 0.0 | 0.00 | 0.40 | 0.01 | 10 | 1015.8 |
| 20260505074100 | 51 | 0 | 0.0 | 0.0 | 0.00 | 0.40 | 0.01 | 10 | 1015.7 |
| 20260505073059 | 51 | 0 | 0.0 | 0.0 | 0.00 | 0.40 | 0.01 | 10 | 1015.8 |
| 20260505072100 | 51 | 0 | 0.0 | 0.0 | 0.00 | 0.40 | 0.01 | 10 | 1015.8 |
| 20260505071100 | 51 | 0 | 0.0 | 0.0 | 0.00 | 0.40 | 0.01 | 10 | 1015.8 |
| 20260505065058 | 51 | 0 | 0.0 | 0.0 | 0.00 | 0.40 | 0.01 | 10 | 1015.8 |
| 20260505060057 | 51 | 0 | 0.0 | 0.0 | 0.00 | 0.40 | 0.01 | 10 | 1016.0 |
| 20260505055056 | 51 | 0 | 0.0 | 0.0 | 0.00 | 0.40 | 0.01 | 10 | 1016.1 |
| 20260505054058 | 51 | 0 | 0.0 | 0.0 | 0.00 | 0.40 | 0.01 | 10 | 1016.0 |
| 20260505053055 | 51 | 0 | 0.0 | 0.0 | 0.00 | 0.40 | 0.01 | 10 | 1015.9 |
| 20260505052054 | 52 | 0 | 0.0 | 0.0 | 0.00 | 0.40 | 0.01 | 10 | 1015.9 |
| 20260505040057 | 52 | 0 | 0.0 | 0.0 | 0.00 | 0.40 | 0.01 | 10 | 1016.1 |
| 20260505035059 | 52 | 0 | 0.0 | 0.0 | 0.00 | 0.40 | 0.01 | 10 | 1016.2 |
| 20260505034055 | 52 | 0 | 0.0 | 0.0 | 0.00 | 0.40 | 0.01 | 10 | 1016.2 |
| 20260505033058 | 53 | 0 | 0.0 | 0.0 | 0.00 | 0.40 | 0.01 | 10 | 1016.2 |
| 20260505032058 | 53 | 0 | 0.0 | 0.0 | 0.00 | 0.40 | 0.01 | 10 | 1016.2 |
| 20260505031059 | 53 | 0 | 0.0 | 0.0 | 0.00 | 0.40 | 0.01 | 10 | 1016.3 |
| 20260505030057 | 53 | 0 | 0.0 | 0.0 | 0.00 | 0.40 | 0.01 | 10 | 1016.3 |
| 20260505025056 | 53 | 0 | 0.0 | 0.0 | 0.00 | 0.40 | 0.01 | 10 | 1016.4 |
| 20260505024101 | 53 | 0 | 0.0 | 0.0 | 0.00 | 0.40 | 0.01 | 10 | 1016.4 |
| 20260505023059 | 53 | 0 | 0.0 | 0.0 | 0.00 | 0.40 | 0.01 | 10 | 1016.3 |
| 20260505022055 | 53 | 0 | 0.0 | 0.0 | 0.00 | 0.40 | 0.01 | 10 | 1016.4 |
| 20260505021058 | 53 | 0 | 0.0 | 0.0 | 0.00 | 0.40 | 0.01 | 10 | 1016.5 |
| 20260505020059 | 53 | 0 | 0.0 | 0.0 | 0.00 | 0.40 | 0.01 | 10 | 1016.4 |
| 20260505015058 | 53 | 0 | 0.0 | 0.0 | 0.00 | 0.40 | 0.01 | 10 | 1016.4 |
| 20260505014056 | 53 | 0 | 0.0 | 0.0 | 0.00 | 0.40 | 0.01 | 10 | 1016.4 |
| 20260505012055 | 53 | 0 | 0.0 | 0.0 | 0.00 | 0.40 | 0.01 | 10 | 1016.4 |
| 20260505010058 | 53 | 0 | 0.0 | 0.0 | 0.00 | 0.40 | 0.01 | 10 | 1016.4 |
| 20260505005102 | 53 | 0 | 0.0 | 0.0 | 0.00 | 0.40 | 0.01 | 10 | 1016.6 |
| 20260505004055 | 53 | 0 | 0.0 | 0.0 | 0.00 | 0.40 | 0.01 | 10 | 1016.6 |
| 20260505003058 | 53 | 0 | 0.0 | 0.0 | 0.00 | 0.41 | 0.01 | 10 | 1016.7 |
| 20260505002057 | 53 | 0 | 0.0 | 0.0 | 0.00 | 0.41 | 0.01 | 10 | 1016.8 |
| 20260505001058 | 53 | 0 | 0.0 | 0.0 | 0.01 | 0.42 | 0.01 | 10 | 1016.9 |
| 20260505000103 | 53 | 0 | 0.0 | 0.0 | 0.01 | 0.43 | 0.01 | 10 | 1017.0 |
| 20260504235106 | 53 | 0 | 0.0 | 0.0 | 0.01 | 0.44 | 0.01 | 10 | 1017.0 |
| 20260504234106 | 54 | 0 | 0.0 | 0.0 | 0.01 | 0.44 | 0.01 | 10 | 1017.0 |
| 20260504233110 | 54 | 0 | 0.0 | 0.0 | 0.01 | 0.44 | 0.01 | 10 | 1017.1 |
| 20260504232106 | 54 | 0 | 0.0 | 0.0 | 0.01 | 0.44 | 0.01 | 10 | 1017.1 |
| 20260504231107 | 54 | 0 | 0.0 | 0.0 | 0.01 | 0.45 | 0.01 | 10 | 1017.1 |
| 20260504230107 | 54 | 0 | 0.0 | 0.0 | 0.00 | 0.44 | 0.00 | 10 | 1017.3 |
| 20260504225110 | 54 | 0 | 0.0 | 0.0 | 0.00 | 0.44 | 0.00 | 10 | 1017.3 |
| 20260504223109 | 54 | 0 | 0.0 | 0.0 | 0.00 | 0.44 | 0.00 | 10 | 1017.5 |
| 20260504222110 | 55 | 0 | 0.0 | 0.0 | 0.00 | 0.44 | 0.00 | 10 | 1017.5 |
| 20260504221108 | 55 | 0 | 0.0 | 0.0 | 0.00 | 0.44 | 0.00 | 10 | 1017.6 |
| 20260504220107 | 55 | 0 | 0.0 | 0.0 | 0.00 | 0.44 | 0.00 | 10 | 1017.7 |
| 20260504215116 | 55 | 0 | 0.0 | 0.0 | 0.00 | 0.44 | 0.44 | 10 | 1017.8 |
| 20260504214114 | 55 | 0 | 0.0 | 0.0 | 0.00 | 0.44 | 0.44 | 10 | 1017.8 |
| 20260504212116 | 56 | 0 | 0.0 | 0.0 | 0.01 | 0.44 | 0.44 | 10 | 1017.8 |
| 20260504211114 | 56 | 0 | 0.0 | 0.0 | 0.01 | 0.44 | 0.44 | 10 | 1017.9 |
| 20260504210113 | 56 | 0 | 0.0 | 0.0 | 0.01 | 0.44 | 0.44 | 10 | 1017.9 |
| 20260504205113 | 56 | 0 | 0.0 | 0.0 | 0.01 | 0.44 | 0.44 | 10 | 1018.0 |
| 20260504204114 | 56 | 0 | 0.0 | 0.0 | 0.01 | 0.44 | 0.44 | 10 | 1017.9 |
| 20260504202127 | 57 | 0 | 0.0 | 0.0 | 0.00 | 0.43 | 0.43 | 99 | 1018.0 |
| 20260504201122 | 57 | 0 | 0.0 | 0.0 | 0.05 | 0.43 | 0.43 | 99 | 1018.1 |
| 20260504195114 | 57 | 0 | 0.0 | 0.0 | 0.36 | 0.43 | 0.43 | 98 | 1017.7 |
| 20260504194113 | 57 | 0 | 0.0 | 0.0 | 0.39 | 0.43 | 0.43 | 98 | 1017.5 |
| 20260504193112 | 57 | 0 | 0.0 | 0.0 | 0.39 | 0.43 | 0.43 | 97 | 1017.5 |
| 20260504192114 | 57 | 0 | 0.0 | 0.0 | 0.39 | 0.43 | 0.43 | 97 | 1017.5 |
| 20260504191116 | 58 | 0 | 0.0 | 0.0 | 0.39 | 0.43 | 0.43 | 96 | 1017.5 |
| 20260504190115 | 58 | 0 | 0.0 | 0.0 | 0.34 | 0.39 | 0.39 | 94 | 1017.5 |
| 20260504185115 | 59 | 0 | 0.0 | 0.0 | 0.16 | 0.20 | 0.20 | 91 | 1017.5 |
| 20260504184110 | 60 | 0 | 0.0 | 0.0 | 0.02 | 0.07 | 0.07 | 88 | 1017.4 |
| 20260504183111 | 61 | 0 | 0.0 | 0.0 | 0.00 | 0.05 | 0.05 | 81 | 1017.2 |
| 20260504182106 | 61 | 0 | 0.0 | 0.0 | 0.00 | 0.05 | 0.05 | 81 | 1017.1 |
| 20260504181110 | 61 | 0 | 0.0 | 0.0 | 0.00 | 0.05 | 0.05 | 79 | 1017.1 |
| 20260504180114 | 62 | 0 | 0.0 | 0.0 | 0.00 | 0.05 | 0.05 | 80 | 1017.1 |
| 20260504175108 | 62 | 0 | 0.0 | 0.0 | 0.00 | 0.05 | 0.05 | 81 | 1017.1 |
| 20260504174107 | 62 | 0 | 0.0 | 0.0 | 0.00 | 0.05 | 0.05 | 79 | 1017.1 |
| 20260504171109 | 62 | 0 | 0.0 | 0.0 | 0.00 | 0.05 | 0.05 | 82 | 1017.1 |
| 20260504170106 | 62 | 0 | 0.0 | 0.0 | 0.00 | 0.05 | 0.05 | 82 | 1017.1 |
| 20260504160105 | 67 | 0 | 0.0 | 0.0 | 0.00 | 0.10 | 0.05 | 76 | 1017.0 |
| 20260504151109 | 66 | 0 | 0.0 | 0.0 | 0.00 | 0.18 | 0.05 | 71 | 1017.2 |
| 20260504141103 | 65 | 0 | 0.0 | 0.0 | 0.00 | 0.18 | 0.05 | 74 | 1017.7 |
| 20260504140113 | 65 | 0 | 0.0 | 0.0 | 0.00 | 0.18 | 0.05 | 75 | 1017.9 |
| 20260504130103 | 64 | 0 | 0.0 | 0.0 | 0.00 | 0.18 | 0.05 | 83 | 1018.4 |
| 20260504110105 | 62 | 0 | 0.0 | 0.0 | 0.00 | 0.18 | 0.05 | 87 | 1018.9 |